Time,TemperatureF,DewpointF,PressureIn,WindDirection,WindDirectionDegrees,WindSpeedMPH,WindSpeedGustMPH,Humidity,HourlyPrecipIn,Conditions,Clouds,dailyrainin,SoftwareType,DateUTC
2013-09-22 00:07:00,60.6,60.0,29.73,NNE,22,0.0,-999.0,98,-99.99,,,0.00,Acu-Link.com,2013-09-22 05:07:00,
2013-09-22 00:22:00,60.6,60.0,29.73,ESE,112,0.0,-999.0,98,-99.99,,,0.00,Acu-Link.com,2013-09-22 05:22:00,
2013-09-22 00:37:00,60.1,59.5,29.73,South,180,0.0,-999.0,98,-99.99,,,0.00,Acu-Link.com,2013-09-22 05:37:00,
2013-09-22 00:53:00,60.1,59.5,29.73,SSW,202,0.0,-999.0,98,-99.99,,,0.00,Acu-Link.com,2013-09-22 05:53:00,
2013-09-22 01:08:00,59.9,59.3,29.73,SSW,202,0.0,-999.0,98,-99.99,,,0.00,Acu-Link.com,2013-09-22 06:08:00,
2013-09-22 01:23:00,60.1,59.5,29.73,North,0,0.0,-999.0,98,-99.99,,,0.00,Acu-Link.com,2013-09-22 06:23:00,
2013-09-22 01:38:00,60.1,59.5,29.73,WNW,292,0.0,-999.0,98,-99.99,,,0.00,Acu-Link.com,2013-09-22 06:38:00,
2013-09-22 01:53:00,60.1,59.5,29.74,WNW,292,0.0,-999.0,98,-99.99,,,0.00,Acu-Link.com,2013-09-22 06:53:00,
2013-09-22 02:08:00,60.1,59.5,29.74,WSW,247,0.0,-999.0,98,-99.99,,,0.00,Acu-Link.com,2013-09-22 07:08:00,
2013-09-22 02:23:00,60.3,59.7,29.74,NNW,337,0.0,-999.0,98,-99.99,,,0.01,Acu-Link.com,2013-09-22 07:23:00,
2013-09-22 02:38:00,60.3,59.7,29.74,North,0,0.0,-999.0,98,-99.99,,,0.01,Acu-Link.com,2013-09-22 07:38:00,
2013-09-22 02:53:00,60.4,59.8,29.74,NNW,337,0.0,-999.0,98,-99.99,,,0.01,Acu-Link.com,2013-09-22 07:53:00,
2013-09-22 03:11:00,60.4,59.8,29.74,West,270,0.0,-999.0,98,-99.99,,,0.01,Acu-Link.com,2013-09-22 08:11:00,
2013-09-22 03:27:00,60.6,60.0,29.75,SSW,202,0.0,-999.0,98,-99.99,,,0.01,Acu-Link.com,2013-09-22 08:27:00,
2013-09-22 03:42:00,60.4,59.8,29.74,West,270,0.0,-999.0,98,-99.99,,,0.01,Acu-Link.com,2013-09-22 08:42:00,
2013-09-22 03:57:00,60.4,59.8,29.75,WSW,247,0.0,-999.0,98,-99.99,,,0.01,Acu-Link.com,2013-09-22 08:57:00,
2013-09-22 04:12:00,60.3,59.7,29.75,WSW,247,0.0,-999.0,98,-99.99,,,0.01,Acu-Link.com,2013-09-22 09:12:00,
2013-09-22 04:27:00,60.3,59.7,29.76,SSW,202,0.0,-999.0,98,-99.99,,,0.01,Acu-Link.com,2013-09-22 09:27:00,
2013-09-22 04:42:00,60.1,59.5,29.76,WNW,292,0.0,-999.0,98,-99.99,,,0.01,Acu-Link.com,2013-09-22 09:42:00,
2013-09-22 04:57:00,59.9,59.3,29.77,NNE,22,3.2,-999.0,98,-99.99,,,0.01,Acu-Link.com,2013-09-22 09:57:00,
2013-09-22 05:12:00,59.4,58.8,29.77,WNW,292,0.0,-999.0,98,-99.99,,,0.01,Acu-Link.com,2013-09-22 10:12:00,
2013-09-22 05:28:00,59.2,58.6,29.77,NNW,337,0.0,-999.0,98,-99.99,,,0.01,Acu-Link.com,2013-09-22 10:28:00,
2013-09-22 05:43:00,59.2,58.6,29.78,SSE,157,0.0,-999.0,98,-99.99,,,0.01,Acu-Link.com,2013-09-22 10:43:00,
2013-09-22 05:58:00,59.2,58.6,29.78,SSW,202,0.0,-999.0,98,-99.99,,,0.01,Acu-Link.com,2013-09-22 10:58:00,
2013-09-22 06:13:00,59.2,58.6,29.79,NW,315,0.0,-999.0,98,-99.99,,,0.01,Acu-Link.com,2013-09-22 11:13:00,
2013-09-22 06:28:00,59.2,58.6,29.79,NNW,337,0.0,-999.0,98,-99.99,,,0.01,Acu-Link.com,2013-09-22 11:28:00,
2013-09-22 06:43:00,59.4,58.8,29.80,South,180,0.0,-999.0,98,-99.99,,,0.01,Acu-Link.com,2013-09-22 11:43:00,
2013-09-22 06:58:00,59.5,58.9,29.80,North,0,0.0,-999.0,98,-99.99,,,0.01,Acu-Link.com,2013-09-22 11:58:00,
2013-09-22 07:13:00,59.5,58.9,29.80,NE,45,0.0,-999.0,98,-99.99,,,0.01,Acu-Link.com,2013-09-22 12:13:00,
2013-09-22 07:40:00,59.7,59.1,29.81,NNW,337,0.0,-999.0,98,-99.99,,,0.01,Acu-Link.com,2013-09-22 12:40:00,
2013-09-22 07:55:00,59.5,58.6,29.81,WNW,292,0.0,-999.0,97,-99.99,,,0.01,Acu-Link.com,2013-09-22 12:55:00,
2013-09-22 08:10:00,59.9,59.0,29.81,WNW,292,0.0,-999.0,97,-99.99,,,0.01,Acu-Link.com,2013-09-22 13:10:00,
2013-09-22 08:25:00,59.7,58.3,29.83,West,270,0.0,-999.0,95,-99.99,,,0.01,Acu-Link.com,2013-09-22 13:25:00,
2013-09-22 08:41:00,59.5,58.1,29.83,NNE,22,0.0,-999.0,95,-99.99,,,0.01,Acu-Link.com,2013-09-22 13:41:00,
2013-09-22 08:56:00,60.1,58.7,29.83,WSW,247,0.0,-999.0,95,-99.99,,,0.01,Acu-Link.com,2013-09-22 13:56:00,
2013-09-22 09:11:00,60.3,58.3,29.83,ESE,112,0.0,-999.0,93,-99.99,,,0.01,Acu-Link.com,2013-09-22 14:11:00,
2013-09-22 09:26:00,65.1,61.5,29.84,East,90,0.0,-999.0,88,-99.99,,,0.01,Acu-Link.com,2013-09-22 14:26:00,
2013-09-22 09:41:00,70.5,62.6,29.83,NNE,22,2.7,-999.0,76,-99.99,,,0.01,Acu-Link.com,2013-09-22 14:41:00,
2013-09-22 09:56:00,70.9,60.6,29.83,South,180,1.7,-999.0,70,-99.99,,,0.01,Acu-Link.com,2013-09-22 14:56:00,
2013-09-22 10:12:00,70.0,60.5,29.84,SE,135,2.2,-999.0,72,-99.99,,,0.01,Acu-Link.com,2013-09-22 15:12:00,
2013-09-22 10:27:00,70.9,60.6,29.83,ESE,112,3.2,-999.0,70,-99.99,,,0.01,Acu-Link.com,2013-09-22 15:27:00,
2013-09-22 10:42:00,74.1,59.8,29.83,NNE,22,4.7,-999.0,61,-99.99,,,0.01,Acu-Link.com,2013-09-22 15:42:00,
2013-09-22 10:57:00,73.6,59.8,29.83,NNE,22,4.2,-999.0,62,-99.99,,,0.01,Acu-Link.com,2013-09-22 15:57:00,
2013-09-22 11:12:00,69.6,58.1,29.83,North,0,2.7,-999.0,67,-99.99,,,0.01,Acu-Link.com,2013-09-22 16:12:00,
2013-09-22 11:27:00,68.5,58.7,29.83,NW,315,2.2,-999.0,71,-99.99,,,0.01,Acu-Link.com,2013-09-22 16:27:00,
2013-09-22 11:43:00,68.0,58.6,29.83,ESE,112,0.0,-999.0,72,-99.99,,,0.01,Acu-Link.com,2013-09-22 16:43:00,
2013-09-22 12:28:00,72.5,58.3,29.83,WNW,292,1.7,-999.0,61,-99.99,,,0.01,Acu-Link.com,2013-09-22 17:28:00,
2013-09-22 12:43:00,70.2,58.7,29.83,West,270,0.0,-999.0,67,-99.99,,,0.01,Acu-Link.com,2013-09-22 17:43:00,
2013-09-22 12:58:00,69.3,58.7,29.82,NW,315,0.0,-999.0,69,-99.99,,,0.01,Acu-Link.com,2013-09-22 17:58:00,
2013-09-22 13:13:00,70.9,59.8,29.82,WNW,292,0.0,-999.0,68,-99.99,,,0.01,Acu-Link.com,2013-09-22 18:13:00,
2013-09-22 13:28:00,68.7,57.7,29.82,South,180,1.1,-999.0,68,-99.99,,,0.01,Acu-Link.com,2013-09-22 18:28:00,
2013-09-22 13:43:00,70.5,57.3,29.81,SSE,157,1.1,-999.0,63,-99.99,,,0.01,Acu-Link.com,2013-09-22 18:43:00,
2013-09-22 13:59:00,71.2,57.1,29.81,SSE,157,3.2,-999.0,61,-99.99,,,0.01,Acu-Link.com,2013-09-22 18:59:00,
2013-09-22 14:14:00,73.0,59.2,29.82,ESE,112,2.2,-999.0,62,-99.99,,,0.01,Acu-Link.com,2013-09-22 19:14:00,
2013-09-22 14:29:00,72.7,57.5,29.81,SSW,202,4.2,-999.0,59,-99.99,,,0.01,Acu-Link.com,2013-09-22 19:29:00,
2013-09-22 14:44:00,74.8,59.0,29.82,NNE,22,3.2,-999.0,58,-99.99,,,0.01,Acu-Link.com,2013-09-22 19:44:00,
2013-09-22 14:59:00,72.7,57.5,29.82,WNW,292,4.2,-999.0,59,-99.99,,,0.01,Acu-Link.com,2013-09-22 19:59:00,
2013-09-22 15:14:00,73.8,59.0,29.82,NNE,22,5.8,-999.0,60,-99.99,,,0.01,Acu-Link.com,2013-09-22 20:14:00,
2013-09-22 15:29:00,71.4,57.2,29.81,NE,45,6.8,-999.0,61,-99.99,,,0.01,Acu-Link.com,2013-09-22 20:29:00,
2013-09-22 15:44:00,70.7,57.5,29.82,NNE,22,6.3,-999.0,63,-99.99,,,0.01,Acu-Link.com,2013-09-22 20:44:00,
2013-09-22 16:00:00,70.2,56.6,29.82,NW,315,2.2,-999.0,62,-99.99,,,0.01,Acu-Link.com,2013-09-22 21:00:00,
2013-09-22 16:15:00,68.2,56.4,29.83,East,90,3.2,-999.0,66,-99.99,,,0.01,Acu-Link.com,2013-09-22 21:15:00,
2013-09-22 16:30:00,68.0,57.0,29.83,West,270,1.1,-999.0,68,-99.99,,,0.01,Acu-Link.com,2013-09-22 21:30:00,
2013-09-22 16:45:00,67.6,56.7,29.83,SW,225,1.1,-999.0,68,-99.99,,,0.01,Acu-Link.com,2013-09-22 21:45:00,
2013-09-22 17:00:00,66.7,55.8,29.83,SSW,202,0.0,-999.0,68,-99.99,,,0.01,Acu-Link.com,2013-09-22 22:00:00,
2013-09-22 17:15:00,65.1,55.5,29.84,NNE,22,2.7,-999.0,71,-99.99,,,0.01,Acu-Link.com,2013-09-22 22:15:00,
2013-09-22 17:30:00,64.0,56.3,29.84,NNE,22,0.0,-999.0,76,-99.99,,,0.01,Acu-Link.com,2013-09-22 22:30:00,
2013-09-22 17:46:00,63.1,55.4,29.84,North,0,1.7,-999.0,76,-99.99,,,0.01,Acu-Link.com,2013-09-22 22:46:00,
2013-09-22 18:01:00,62.2,54.9,29.85,NW,315,0.0,-999.0,77,-99.99,,,0.01,Acu-Link.com,2013-09-22 23:01:00,
2013-09-22 18:16:00,61.0,54.4,29.85,SSE,157,0.0,-999.0,79,-99.99,,,0.01,Acu-Link.com,2013-09-22 23:16:00,
2013-09-22 18:31:00,58.6,54.1,29.86,SE,135,2.2,-999.0,85,-99.99,,,0.01,Acu-Link.com,2013-09-22 23:31:00,
2013-09-22 18:46:00,57.6,53.8,29.86,South,180,0.0,-999.0,87,-99.99,,,0.01,Acu-Link.com,2013-09-22 23:46:00,
2013-09-22 19:01:00,56.8,53.6,29.87,NNW,337,1.7,-999.0,89,-99.99,,,0.01,Acu-Link.com,2013-09-23 00:01:00,
2013-09-22 19:16:00,56.1,53.5,29.88,South,180,0.0,-999.0,91,-99.99,,,0.01,Acu-Link.com,2013-09-23 00:16:00,
2013-09-22 19:32:00,55.4,53.1,29.88,WNW,292,0.0,-999.0,92,-99.99,,,0.01,Acu-Link.com,2013-09-23 00:32:00,
2013-09-22 19:47:00,54.5,52.5,29.89,NNW,337,2.2,-999.0,93,-99.99,,,0.01,Acu-Link.com,2013-09-23 00:47:00,
2013-09-22 20:02:00,54.3,52.3,29.89,NNW,337,0.0,-999.0,93,-99.99,,,0.01,Acu-Link.com,2013-09-23 01:02:00,
2013-09-22 20:18:00,54.0,52.3,29.90,NW,315,0.0,-999.0,94,-99.99,,,0.01,Acu-Link.com,2013-09-23 01:18:00,
2013-09-22 20:34:00,53.8,52.1,29.90,NNW,337,0.0,-999.0,94,-99.99,,,0.01,Acu-Link.com,2013-09-23 01:34:00,
2013-09-22 20:50:00,53.6,52.2,29.90,NW,315,0.0,-999.0,95,-99.99,,,0.01,Acu-Link.com,2013-09-23 01:50:00,
2013-09-22 21:05:00,53.1,51.4,29.91,NNW,337,0.0,-999.0,94,-99.99,,,0.01,Acu-Link.com,2013-09-23 02:05:00,
2013-09-22 21:20:00,52.9,51.5,29.91,NNW,337,0.0,-999.0,95,-99.99,,,0.01,Acu-Link.com,2013-09-23 02:20:00,
2013-09-22 21:35:00,52.9,51.8,29.92,ENE,67,0.0,-999.0,96,-99.99,,,0.01,Acu-Link.com,2013-09-23 02:35:00,
2013-09-22 21:50:00,52.7,51.6,29.92,NNW,337,0.0,-999.0,96,-99.99,,,0.01,Acu-Link.com,2013-09-23 02:50:00,
2013-09-22 22:05:00,52.7,51.6,29.93,North,0,1.7,-999.0,96,-99.99,,,0.01,Acu-Link.com,2013-09-23 03:05:00,
2013-09-22 22:21:00,52.7,51.6,29.92,NNW,337,0.0,-999.0,96,-99.99,,,0.01,Acu-Link.com,2013-09-23 03:21:00,
2013-09-22 22:36:00,53.2,52.1,29.93,North,0,0.0,-999.0,96,-99.99,,,0.01,Acu-Link.com,2013-09-23 03:36:00,
2013-09-22 22:51:00,52.9,51.8,29.93,ENE,67,0.0,-999.0,96,-99.99,,,0.01,Acu-Link.com,2013-09-23 03:51:00,
2013-09-22 23:06:00,52.9,51.8,29.93,NNE,22,1.7,-999.0,96,-99.99,,,0.00,Acu-Link.com,2013-09-23 04:06:00,
2013-09-22 23:21:00,52.9,52.1,29.93,NW,315,0.0,-999.0,97,-99.99,,,0.00,Acu-Link.com,2013-09-23 04:21:00,
2013-09-22 23:36:00,52.7,51.9,29.93,NNW,337,0.0,-999.0,97,-99.99,,,0.00,Acu-Link.com,2013-09-23 04:36:00,
2013-09-22 23:51:00,52.5,51.7,29.93,NNE,22,0.0,-999.0,97,-99.99,,,0.00,Acu-Link.com,2013-09-23 04:51:00,